Location: Nairn
(57.5833°N, 3.8667°W)
Time: 17:30:55
(UTC+00:00)

S-56A Canister/Altair - Pass Details

Date: 29 November 2020
Orbit: 633 x 2499 km, 38.9° (Epoch: 19 January)

Event Time Altitude Azimuth Distance (km) Brightness Sun altitude
Rises 23:58:15 0° 253° (WSW) 4,321 - -53.9°
Reaches altitude 10° 00:04:39 10° 217° (SW) 2,803 - -53.9°
Maximum altitude 00:05:41 10° 208° (SSW) 2,691 - -53.9°
Drops below altitude 10° 00:06:40 10° 199° (SSW) 2,640 - -53.9°
Sets 00:11:34 0° 158° (SSE) 3,221 - -53.9°
